Weather History for Cherokee, IA

Change the Weather History Date:

Friday, May 3, 2013

  Actual Average Record
Temperature  
Mean Temperature 37 °F -  
Max Temperature 44 °F 65 °F 91 °F (1949)
Min Temperature 30 °F 39 °F 24 °F (1967)
Degree Days  
Heating Degree Days 28    
Moisture  
Dew Point 27 °F    
Average Humidity 70    
Maximum Humidity 86    
Minimum Humidity 49    
Precipitation  
Precipitation 0.00 in - - ()
Sea Level Pressure  
Sea Level Pressure 30.22 in    
Wind  
Wind Speed 12 mph (North)    
Max Wind Speed 22 mph    
Max Gust Speed 29 mph    
Visibility 10 miles    
Events      
Averages and records for this station are not official NWS values.
T = Trace of Precipitation, MM = Missing Value Source: NWS Daily Summary

Daily Weather History Graph

Daily Weather History Graph

Search for Another Location

Airport:

Trip Planner

Search our weather history database for the weather conditions in past years. The results will help you decide how hot, cold, wet, or windy it might be!

Date:

Astronomy

May. 03, 2013 Rise Set
Actual Time 6:13 AM CDT 8:25 PM CDT
Civil Twilight 5:42 AM CDT 8:56 PM CDT
Nautical Twilight 5:04 AM CDT 9:34 PM CDT
Astronomical Twilight 4:22 AM CDT 10:17 PM CDT
Moon 2:47 AM CDT (5/3) 2:12 PM CDT (5/3)
Length of Visible Light 15h 13m
Length of Day
14h 11m
Last Quarter, 37% of the Moon is Illuminated
May 3
Last Quarter
May 9
New
May 17
First Quarter
May 24
Full
May 31
Last Quarter

Hourly Weather History & Observations

Time (CDT) Temp. Windchill Dew Point Humidity Pressure Visibility Wind Dir Wind Speed Gust Speed Precip Events Conditions
12:15 AM 35.6 °F 28.0 °F 25.5 °F 67% 30.40 in 10.0 mi North 10.4 mph 16.1 mph N/A   Clear
12:35 AM 35.1 °F 27.9 °F 25.5 °F 68% 30.40 in 10.0 mi North 9.2 mph - N/A   Clear
12:55 AM 34.7 °F 26.9 °F 25.7 °F 70% 30.40 in 10.0 mi North 10.4 mph 16.1 mph N/A   Clear
1:15 AM 34.0 °F 26.6 °F 25.7 °F 72% 30.39 in 10.0 mi North 9.2 mph - N/A   Clear
1:35 AM 33.3 °F 25.7 °F 25.7 °F 74% 30.38 in 10.0 mi North 9.2 mph - N/A   Clear
1:55 AM 33.3 °F 25.7 °F 25.3 °F 73% 30.37 in 10.0 mi North 9.2 mph - N/A   Clear
2:15 AM 32.9 °F 25.3 °F 25.5 °F 74% 30.35 in 10.0 mi North 9.2 mph - N/A   Clear
2:35 AM 32.5 °F 25.5 °F 25.7 °F 76% 30.35 in 10.0 mi North 8.1 mph - N/A   Clear
2:55 AM 32.2 °F 25.0 °F 26.2 °F 79% 30.34 in 10.0 mi North 8.1 mph - N/A   Clear
3:15 AM 32.0 °F 24.2 °F 26.2 °F 79% 30.34 in 10.0 mi North 9.2 mph - N/A   Clear
3:35 AM 32.0 °F 24.8 °F 26.4 °F 80% 30.34 in 10.0 mi North 8.1 mph - N/A   Clear
3:55 AM 32.0 °F 24.8 °F 26.1 °F 79% 30.33 in 10.0 mi North 8.1 mph - N/A   Clear
4:15 AM 31.8 °F 23.9 °F 25.7 °F 78% 30.33 in 10.0 mi North 9.2 mph - N/A   Clear
4:35 AM 31.5 °F 23.5 °F 25.7 °F 79% 30.32 in 10.0 mi North 9.2 mph - N/A   Clear
4:55 AM 31.1 °F 21.9 °F 25.5 °F 80% 30.31 in 10.0 mi North 11.5 mph - N/A   Clear
5:15 AM 30.9 °F 21.7 °F 25.3 °F 80% 30.31 in 10.0 mi North 11.5 mph - N/A   Clear
5:35 AM 30.7 °F 22.0 °F 25.2 °F 80% 30.31 in 10.0 mi North 10.4 mph - N/A   Clear
5:55 AM 30.2 °F 21.9 °F 25.2 °F 82% 30.31 in 10.0 mi North 9.2 mph - N/A   Clear
6:15 AM 30.2 °F 21.9 °F 25.0 °F 81% 30.31 in 10.0 mi NNE 9.2 mph - N/A   Clear
6:35 AM 30.2 °F 21.3 °F 25.0 °F 81% 30.31 in 10.0 mi North 10.4 mph - N/A   Scattered Clouds
6:55 AM 30.2 °F 19.8 °F 24.8 °F 80% 30.30 in 10.0 mi North 13.8 mph - N/A   Scattered Clouds
7:15 AM 30.2 °F 20.8 °F 24.6 °F 80% 30.29 in 10.0 mi North 11.5 mph - N/A   Scattered Clouds
7:35 AM 30.2 °F 21.9 °F 24.8 °F 80% 30.29 in 10.0 mi North 9.2 mph 16.1 mph N/A   Clear
7:55 AM 30.6 °F 21.2 °F 24.6 °F 79% 30.28 in 10.0 mi North 11.5 mph - N/A   Clear
8:15 AM 31.5 °F 22.3 °F 24.8 °F 76% 30.29 in 10.0 mi North 11.5 mph 16.1 mph N/A   Clear
8:35 AM 31.8 °F 22.8 °F 24.8 °F 75% 30.30 in 10.0 mi North 11.5 mph - N/A   Clear
8:55 AM 32.0 °F 23.0 °F 25.2 °F 76% 30.30 in 10.0 mi North 11.5 mph - N/A   Clear
9:15 AM 32.9 °F 22.8 °F 25.5 °F 74% 30.28 in 10.0 mi North 15.0 mph 19.6 mph N/A   Clear
9:35 AM 33.8 °F 24.3 °F 26.4 °F 74% 30.27 in 10.0 mi North 13.8 mph - N/A   Clear
9:55 AM 34.5 °F 25.7 °F 27.0 °F 74% 30.27 in 10.0 mi North 12.7 mph 19.6 mph N/A   Clear
10:15 AM 34.7 °F 25.9 °F 26.4 °F 72% 30.26 in 10.0 mi North 12.7 mph 19.6 mph N/A   Clear
10:35 AM 35.6 °F 26.2 °F 27.7 °F 73% 30.25 in 10.0 mi North 15.0 mph 21.9 mph N/A   Mostly Cloudy
10:55 AM 35.8 °F 25.7 °F 27.1 °F 71% 30.23 in 10.0 mi North 17.3 mph - N/A   Overcast
11:15 AM 36.7 °F 26.9 °F 27.1 °F 68% 30.23 in 10.0 mi North 17.3 mph 24.2 mph N/A   Overcast
11:35 AM 37.4 °F 27.8 °F 27.0 °F 66% 30.23 in 10.0 mi North 17.3 mph 25.3 mph N/A   Overcast
11:55 AM 37.9 °F 28.5 °F 27.1 °F 65% 30.21 in 10.0 mi North 17.3 mph 24.2 mph N/A   Overcast
12:15 PM 38.7 °F 29.5 °F 25.0 °F 58% 30.20 in 10.0 mi North 17.3 mph 28.8 mph N/A   Overcast
12:35 PM 39.2 °F 29.8 °F 26.2 °F 60% 30.20 in 10.0 mi North 18.4 mph 27.6 mph N/A   Overcast
12:55 PM 39.6 °F 30.0 °F 27.3 °F 62% 30.19 in 10.0 mi North 19.6 mph 24.2 mph N/A   Overcast
1:15 PM 40.5 °F 32.1 °F 28.9 °F 64% 30.17 in 10.0 mi North 16.1 mph 26.5 mph N/A   Overcast
1:35 PM 40.8 °F 32.6 °F 27.9 °F 60% 30.17 in 10.0 mi North 16.1 mph 25.3 mph N/A   Overcast
1:55 PM 42.4 °F 34.7 °F 30.0 °F 61% 30.16 in 10.0 mi North 16.1 mph 24.2 mph N/A   Overcast
2:15 PM 42.6 °F 34.9 °F 28.6 °F 58% 30.15 in 10.0 mi North 16.1 mph 23.0 mph N/A   Overcast
2:35 PM 42.8 °F 34.8 °F 27.7 °F 55% 30.15 in 10.0 mi North 17.3 mph 26.5 mph N/A   Overcast
2:55 PM 43.7 °F 36.0 °F 27.5 °F 53% 30.14 in 10.0 mi NNE 17.3 mph 26.5 mph N/A   Overcast
3:15 PM 44.4 °F 36.6 °F 28.4 °F 53% 30.13 in 10.0 mi North 18.4 mph 23.0 mph N/A   Overcast
3:35 PM 44.1 °F 35.9 °F 27.5 °F 52% 30.12 in 10.0 mi NNE 19.6 mph 26.5 mph N/A   Overcast
3:55 PM 43.7 °F 35.4 °F 26.4 °F 51% 30.11 in 10.0 mi NNE 19.6 mph 25.3 mph N/A   Overcast
4:15 PM 43.0 °F 36.0 °F 25.2 °F 49% 30.11 in 10.0 mi NNE 13.8 mph 27.6 mph N/A   Overcast
4:35 PM 42.8 °F 35.1 °F 25.9 °F 51% 30.12 in 10.0 mi North 16.1 mph 21.9 mph N/A   Overcast
4:55 PM 41.9 °F 34.3 °F 26.2 °F 54% 30.11 in 10.0 mi NNE 15.0 mph 23.0 mph N/A   Overcast
5:15 PM 41.5 °F 33.5 °F 26.4 °F 55% 30.11 in 10.0 mi North 16.1 mph 25.3 mph N/A   Overcast
5:35 PM 41.5 °F 32.9 °F 25.9 °F 54% 30.11 in 10.0 mi North 18.4 mph 23.0 mph N/A   Overcast
5:55 PM 41.5 °F 33.8 °F 25.3 °F 53% 30.11 in 10.0 mi North 15.0 mph 19.6 mph N/A   Overcast
6:15 PM 41.9 °F 35.9 °F 25.0 °F 51% 30.11 in 10.0 mi North 10.4 mph 16.1 mph N/A   Overcast
6:35 PM 41.7 °F 34.1 °F 25.3 °F 52% 30.10 in 10.0 mi North 15.0 mph 18.4 mph N/A   Overcast
7:15 PM 40.5 °F 32.5 °F 30.0 °F 66% 30.10 in 10.0 mi NNE 15.0 mph 21.9 mph N/A   Overcast
7:35 PM 39.7 °F 30.9 °F 29.3 °F 66% 30.10 in 10.0 mi North 17.3 mph 23.0 mph N/A   Overcast
7:55 PM 39.4 °F 29.2 °F 29.3 °F 67% 30.09 in 10.0 mi NNE 21.9 mph 26.5 mph N/A   Overcast
8:15 PM 39.2 °F 30.5 °F 30.2 °F 70% 30.09 in 10.0 mi NNE 16.1 mph 24.2 mph N/A   Overcast
8:35 PM 38.7 °F 29.8 °F 30.7 °F 73% 30.11 in 10.0 mi North 16.1 mph 21.9 mph N/A   Overcast
8:55 PM 38.5 °F 30.7 °F 31.5 °F 76% 30.11 in 10.0 mi North 12.7 mph 17.3 mph N/A   Overcast
9:15 PM 38.1 °F 30.7 °F 32.0 °F 79% 30.12 in 10.0 mi NNE 11.5 mph 18.4 mph N/A   Overcast
9:35 PM 37.4 °F 30.8 °F 33.1 °F 84% 30.12 in 10.0 mi NE 9.2 mph - N/A   Overcast
9:55 PM 37.0 °F 29.3 °F 32.9 °F 85% 30.12 in 10.0 mi NNE 11.5 mph - N/A   Overcast
10:15 PM 36.5 °F 27.8 °F 32.2 °F 84% 30.11 in 10.0 mi NNE 13.8 mph 20.7 mph N/A   Overcast
10:35 PM 36.3 °F 27.5 °F 32.4 °F 86% 30.10 in 10.0 mi NNE 13.8 mph 19.6 mph N/A   Overcast
10:55 PM 36.1 °F 25.9 °F 31.5 °F 83% 30.09 in 10.0 mi North 18.4 mph 25.3 mph N/A   Overcast
11:15 PM 35.8 °F 28.3 °F 31.6 °F 85% 30.08 in 10.0 mi NNE 10.4 mph 18.4 mph N/A   Overcast
11:35 PM 36.0 °F 25.6 °F 31.1 °F 82% 30.08 in 10.0 mi North 18.4 mph 24.2 mph N/A   Overcast
11:55 PM 35.6 °F 26.2 °F 30.6 °F 82% 30.09 in 10.0 mi NE 15.0 mph 20.7 mph N/A   Overcast